Regional Weather Roundup
Issued by NWS New Orleans/Baton Rouge, LA

Home | Current Version | Previous Version | Text Only | Print | Product List | Glossary On
Versions: 1 2 3 4 5 6 7 8 9 10 11 12 13 14 15 16 17 18 19 20 21 22 23 24 25 26 27 28
000
ASUS44 KLIX 040011
RWRLIX
NEW ORLEANS REGIONAL WEATHER ROUNDUP
NATIONAL WEATHER SERVICE NEW ORLEANS LA
700 PM CDT TUE MAY 03 2016

NOTE: "FAIR" INDICATES FEW OR NO CLOUDS BELOW 12,000 FEET WITH NO
      SIGNIFICANT WEATHER AND/OR OBSTRUCTIONS TO VISIBILITY.
      SKY/WX - SKY CONDITION AND SIGNIFICANT WEATHER.
      TMP - AIR TEMPERATURE.     DP    - DEWPOINT TEMPERATURE.
      RH  - RELATIVE HUMIDITY.   PRES  - PRESSURE.
      HI  - HEAT INDEX.          WCI   - WIND CHILL INDEX.

*  THESE STATIONS ARE NOT NWS OR FAA STATIONS AND ARE NOT UNDER
   NWS QUALITY CONTROL.

LAZ038-040-048-061>063-065>067-069-040100-
SOUTHEAST LOUISIANA

CITY           SKY/WX    TMP DP  RH WIND       PRES   REMARKS
N.O. AUDUBON     N/A     75  67  74 MISG        N/A
6HR MIN TEMP:  75; 6HR MAX TEMP:  81;

N.O. INTL ARPT PTCLDY    74  64  71 N6        29.90S
6HR MIN TEMP:  74; 6HR MAX TEMP:  78;

N.O. LAKEFRONT PTCLDY    70  65  84 N10       29.91S
6HR MIN TEMP:  69; 6HR MAX TEMP:  71;

N.O. DOWNTOWN*   N/A     74  63  68 VRB3      29.91S
6HR MIN TEMP:  73; 6HR MAX TEMP:  77;

RESERVE*         N/A     75  64  69 CALM      29.91S
6HR MIN TEMP:  74; 6HR MAX TEMP:  77;

SLIDELL        PTCLDY    74  65  73 N3        29.89S
6HR MIN TEMP:  74; 6HR MAX TEMP:  77;

BATON ROUGE    PTCLDY    74  57  55 NW5       29.92R
6HR MIN TEMP:  70; 6HR MAX TEMP:  78;

BOOTHVILLE     CLOUDY    73  69  87 NE3       29.89F
6HR MIN TEMP:  73; 6HR MAX TEMP:  78;

BELLE CHASSE   PTCLDY    74  64  71 N5        29.90S
6HR MIN TEMP:  73; 6HR MAX TEMP:  79;

BOGALUSA*        N/A     75  62  64 CALM      29.91S
6HR MIN TEMP:  73; 6HR MAX TEMP:  78;

GALLIANO*      CLEAR     74  66  75 N8        29.90S
6HR MIN TEMP:  74; 6HR MAX TEMP:  80;

NEW ROADS*       N/A     73  58  59 NW8       29.93S
6HR MIN TEMP:  70; 6HR MAX TEMP:  75;

GONZALES*        N/A     72  65  78 CALM      29.91R
6HR MIN TEMP:  72; 6HR MAX TEMP:  75;

HAMMOND*       PTCLDY    73  61  64 N3        29.90S
HOUMA*         PTCLDY    73  68  83 N6        29.91
PORT FOURCHON* MOCLDY    73  70  88 NE6       29.91R

$$

MSZ070-080>082-040100-
SOUTHERN MISSISSIPPI

CITY           SKY/WX    TMP DP  RH WIND       PRES   REMARKS
MCCOMB         CLEAR     72  58  61 NW9       29.92S
6HR MIN TEMP:  68; 6HR MAX TEMP:  77;

GULFPORT       CLOUDY    74  64  71 N9        29.88R
6HR MIN TEMP:  74; 6HR MAX TEMP:  80; 6HR PCP:  0.06;

BILOXI         CLOUDY    73  67  82 N3        29.89R
6HR MIN TEMP:  72; 6HR MAX TEMP:  80; 6HR PCP:  0.01;

PASCAGOULA     CLOUDY    73  66  78 N7        29.89S
6HR MIN TEMP:  72; 6HR MAX TEMP:  80; 6HR PCP:  0.01;

STENNIS ARPT*  PTCLDY    73  61  64 NW7       29.89R

$$

COASTAL OBSERVATIONS
LAKE AND NEARSHORE STATIONS

STATION/POSITION TIME  TEMP    WIND        PRES    WAVE
                       AIR SEA DIR/SP/G            HT/PER
                 (UTC) (F)     (DEG/KT/KT) (MB)    (FT/S)
PASCAGOULA       2300   72                 1011.5
WAVELAND YACHT   2300   75 75              1011.8
GRAND ISLE       2300   76 77              1011.8
NEW CANAL        2300   73 74              1011.9
SHELL BEACH      2300   73 77              1012.4

OFFSHORE STATIONS

STATION/POSITION TIME  TEMP    WIND        PRES    WAVE
                       AIR SEA DIR/SP/G            HT/PER
                 (UTC) (F)     (DEG/KT/KT) (MB)    (FT/S)
64 S DAUPHIN ISL 2300   76 77   30/  2/  4 1011.6

$$





USA.gov is the U.S. government's official web portal to all federal, state and local government web resources and services.